163  
ASUS41 KPHI 171210  
RWRPHI  
 
REGIONAL WEATHER ROUNDUP  
NATIONAL WEATHER SERVICE MOUNT HOLLY NJ  
800 AM EDT THU APR 17 2014  
 
NOTE: "FAIR" INDICATES FEW OR NO CLOUDS BELOW 12,000 FEET WITH NO  
SIGNIFICANT WEATHER AND/OR S TO VISIBILITY
.  
 
* = STATION DOES NOT REPORT PRECIPITATION (E.G. RAIN, SNOW, ETC.)  
OR FOG.
 
 
NJZ015>026-171300-  
SOUTHERN NEW JERSEY  
 
CITY SKY/WX TMP DP RH WIND PRES REMARKS
 
POMONA PTSUNNY 42 31 64 E17 30.64S  
6HR MIN TEMP: 28; 6HR MAX TEMP: 42;  
 
RIO GRANDE* CLOUDY 43 30 61 NE14 30.64R  
MILLVILLE SUNNY 39 30 70 NE12 30.65R WCI 32  
WRIGHTSTOWN MOSUNNY 38 29 71 NE10 30.64R WCI 31  
MOUNT HOLLY MOSUNNY 37 26 64 NE3 30.67R  
TRENTON SUNNY 38 23 55 E9 30.66R WCI 31  
6HR MIN TEMP: 32; 6HR MAX TEMP: 38;  
 

 
NJZ001>014-171300-  
NORTHERN NEW JERSEY  
 
CITY SKY/WX TMP DP RH WIND PRES REMARKS
 
SUSSEX N/A 35 19 52 NE6 30.68R WCI 30  
ANDOVER* N/A 33 22 63 VRB3 30.68R  
MORRISTOWN MOSUNNY 36 21 55 E9 30.71R WCI 29  
NEWARK MOSUNNY 39 23 52 NE13 30.70R WCI 31  
TETERBORO SUNNY 38 18 44 NE8 30.70R WCI 32  
CALDWELL SUNNY 35 19 52 E13 30.71R WCI 26  
SOMERVILLE SUNNY 37 20 50 VRB6 30.67R WCI 32  
ALLAIRE* SUNNY 39 23 52 E17 30.67R WCI 30  
TOMS RIVER* PTSUNNY 41 28 60 E7 30.67R  
 

 
PAZ043-044-047-054-055-060>062-066>071-171300-  
EASTERN PENNSYLVANIA  
 
CITY SKY/WX TMP DP RH WIND PRES REMARKS
 
PHILADELPHIA MOSUNNY 41 25 53 E8 30.67R  
6HR MIN TEMP: 37; 6HR MAX TEMP: 41;  
 
NORTH PHILA SUNNY 40 23 50 E9 30.69R WCI 34  
BLUE BELL SUNNY 37 25 60 E5 30.66R WCI 34  
DOYLESTOWN SUNNY 35 20 54 NE6 30.66R WCI 30  
QUAKERTOWN* SUNNY 36 21 55 E6 30.67R WCI 31  
POTTSTOWN SUNNY 36 20 52 E7 30.68R WCI 30  
LANCASTER SUNNY 35 21 56 E9 30.64R WCI 28  
COATESVILLE SUNNY 36 19 51 E8G20 30.64R WCI 29  
READING SUNNY 37 22 54 NE3 30.66R  
6HR MIN TEMP: 31; 6HR MAX TEMP: 37;  
 
ALLENTOWN SUNNY 35 20 54 NE7 30.67R WCI 29  
6HR MIN TEMP: 27; 6HR MAX TEMP: 35;  
 
MOUNT POCONO SUNNY 28 14 55 E13 30.59R WCI 17  
6HR MIN TEMP: 26; 6HR MAX TEMP: 28;  
 
HAZLETON SUNNY 32 14 47 E12G17 30.61R WCI 23  
WILKES BARRE SUNNY 33 16 49 VRB3 30.62R  
 

 
DEZALL-MDZ008-012-015-019-020-171300-  
DELAWARE AND EASTERN MARYLAND  
 
CITY SKY/WX TMP DP RH WIND PRES REMARKS
 
WILMINGTON SUNNY 41 27 57 NE12 30.67R  
6HR MIN TEMP: 34; 6HR MAX TEMP: 41;  
 
DOVER SUNNY 42 34 73 NE17 30.60R  
GEORGETOWN SUNNY 41 34 76 E6 30.63R  
6HR MIN TEMP: 31; 6HR MAX TEMP: 41; 6HR PCP: TRACE;  
 
EASTON MOSUNNY 39 34 81 NE7 30.67R WCI 34  
PATUXENT MOSUNNY 43 31 62 NE9 30.62R  
OCEAN CITY PTSUNNY 44 32 62 E13 30.62R  
WALLOPS ISLAND PTSUNNY 46 32 58 E17 30.61R  
CAMBRIDGE SUNNY 41 32 70 NE6 30.62R  
SALISBURY SUNNY 41 33 73 N3 30.62R  
 

 
PAZ001-021-NYZ056-072-MDZ011-DCZ001-171300-  
OTHER NEARBY LOCATIONS  
 
CITY SKY/WX TMP DP RH WIND PRES REMARKS
 
HARRISBURG MOSUNNY 38 20 48 SE6 30.65R WCI 33  
STATE COLLEGE SUNNY 34 12 40 E3 30.57R  
WILLIAMSPORT SUNNY 31 21 66 CALM 30.63R  
BINGHAMTON MOSUNNY 27 17 66 SE9 30.58R WCI 18  
NEW YORK CITY SUNNY 37 22 54 NE13G21 30.72R WCI 29  
BALTIMORE PTSUNNY 41 29 62 NE8 30.63R  
WASHINGTON DC PTSUNNY 41 30 65 NE8 30.64R  
 

 
 
CLICK HERE TO GO TO PREVIOUS BULLETINS.

The Nexlab PA Page
The Nexlab NJ Page
The Nexlab DE Page
The Nexlab MD Page Main Text Page